Вернуться в каталог

FENGYUN 1C DEB

АктивенSSO
NORAD 38832·DEBRIS·🇨🇳 China

Запущен May 10, 1999 с Taiyuan Satellite Launch Center

Loading…

Ближайшие Пролёты (ближайшие 24 часа)

TLE

СвежийSource: Space-Track

Эпоха: Sep 11, 2026, 20:50 UTC

1 38832U 99025EVY 26254.86859252  .00001119  00000-0  69643-3 0  9996
2 38832  99.2464 309.6949 0085113   7.8093 352.4377 14.05333979675930

Отслеживайте FENGYUN 1C DEB в реальном времени с AllMySat

Download on the App Store